SWA3192 KMCO-KRSW

Flight info

Callsign SWA3192
Flight time 0h 28m
Altitude 16000
Route FSHUN4 FSHUN SHFTY SHFTY6
Aircraft B738/M-SDE2E3FGHIRWXY/LB1

Departure

Time 2026-04-26 16:07
Airport Orlando International Airport (KMCO)

Arrival

Time 2026-04-26 16:35
Airport Southwest Florida International Airport (KRSW)
Time Latitude Longitude Altitude Speed Heading
2026-04-26 15:31 28.43430 -81.29989 100 ft 0 kts 285°
2026-04-26 15:53 28.43429 -81.29985 100 ft 2 kts 285°
2026-04-26 15:53 28.43424 -81.29965 99 ft 3 kts 287°
2026-04-26 15:53 28.43419 -81.29943 99 ft 3 kts 286°
2026-04-26 15:54 28.43412 -81.29924 98 ft 3 kts 323°
2026-04-26 15:54 28.43400 -81.29919 98 ft 1 kts 11°
2026-04-26 15:54 28.43386 -81.29922 99 ft 3 kts 11°
2026-04-26 15:54 28.43379 -81.29924 100 ft 0 kts 11°
2026-04-26 16:01 28.43383 -81.29920 98 ft 2 kts 34°
2026-04-26 16:01 28.43415 -81.29891 100 ft 10 kts 26°
2026-04-26 16:02 28.43485 -81.29885 100 ft 9 kts 360°
2026-04-26 16:02 28.43534 -81.29877 100 ft 7 kts 38°
2026-04-26 16:02 28.43549 -81.29827 103 ft 8 kts 90°
2026-04-26 16:02 28.43549 -81.29777 103 ft 12 kts 89°
2026-04-26 16:03 28.43550 -81.29698 102 ft 0 kts 90°
2026-04-26 16:05 28.43550 -81.29660 102 ft 9 kts 89°
2026-04-26 16:06 28.43542 -81.29598 103 ft 6 kts 136°
2026-04-26 16:06 28.43506 -81.29588 104 ft 0 kts 176°
2026-04-26 16:06 28.43505 -81.29588 104 ft 3 kts 176°
2026-04-26 16:06 28.43280 -81.29585 107 ft 66 kts 179°
2026-04-26 16:07 28.42593 -81.29578 99 ft 129 kts 179°
2026-04-26 16:07 28.41541 -81.29561 245 ft 166 kts 180°
2026-04-26 16:07 28.40345 -81.29517 773 ft 183 kts 179°
2026-04-26 16:07 28.38978 -81.29715 989 ft 210 kts 197°
2026-04-26 16:08 28.37552 -81.30296 1219 ft 226 kts 205°
2026-04-26 16:08 28.36596 -81.30796 1546 ft 231 kts 208°
2026-04-26 16:08 28.34491 -81.31859 2013 ft 257 kts 204°
2026-04-26 16:08 28.32829 -81.32615 2923 ft 256 kts 203°
2026-04-26 16:09 28.31155 -81.33336 3848 ft 258 kts 203°
2026-04-26 16:09 28.29474 -81.34056 4760 ft 258 kts 202°
2026-04-26 16:09 28.27771 -81.34785 5515 ft 265 kts 203°
2026-04-26 16:09 28.26053 -81.35533 6244 ft 270 kts 204°
2026-04-26 16:10 28.24259 -81.36312 6957 ft 274 kts 204°
2026-04-26 16:10 28.22486 -81.37079 7687 ft 278 kts 204°
2026-04-26 16:10 28.20670 -81.37867 8431 ft 281 kts 204°
2026-04-26 16:10 28.18830 -81.38666 9143 ft 285 kts 204°
2026-04-26 16:11 28.16962 -81.39478 9863 ft 289 kts 204°
2026-04-26 16:11 28.15073 -81.40299 10538 ft 293 kts 204°
2026-04-26 16:11 28.13157 -81.41132 11197 ft 297 kts 204°
2026-04-26 16:11 28.11212 -81.41977 11863 ft 301 kts 204°
2026-04-26 16:12 28.09239 -81.42834 12540 ft 306 kts 205°
2026-04-26 16:12 28.07237 -81.43704 13218 ft 310 kts 205°
2026-04-26 16:12 28.03153 -81.45478 14560 ft 318 kts 205°
2026-04-26 16:13 28.01074 -81.46380 15221 ft 322 kts 205°
2026-04-26 16:13 27.98969 -81.47293 15775 ft 326 kts 205°
2026-04-26 16:13 27.96843 -81.48215 15987 ft 329 kts 205°
2026-04-26 16:13 27.94724 -81.49133 15975 ft 330 kts 205°
2026-04-26 16:14 27.92564 -81.50068 15983 ft 327 kts 205°
2026-04-26 16:14 27.90463 -81.50977 15988 ft 327 kts 205°
2026-04-26 16:14 27.86222 -81.52813 15987 ft 326 kts 205°
2026-04-26 16:15 27.84106 -81.53728 15985 ft 326 kts 205°
2026-04-26 16:15 27.82023 -81.54733 15973 ft 323 kts 216°
2026-04-26 16:15 27.80431 -81.56428 15999 ft 312 kts 239°
2026-04-26 16:16 27.78250 -81.60654 16004 ft 311 kts 246°
2026-04-26 16:16 27.77244 -81.62820 15998 ft 312 kts 246°
2026-04-26 16:16 27.76233 -81.64984 15998 ft 312 kts 245°
2026-04-26 16:16 27.75204 -81.67157 15992 ft 313 kts 245°
2026-04-26 16:17 27.74169 -81.69322 15995 ft 314 kts 245°
2026-04-26 16:17 27.73128 -81.71489 16001 ft 314 kts 245°
2026-04-26 16:17 27.72082 -81.73629 15997 ft 316 kts 241°
2026-04-26 16:17 27.70565 -81.75439 15998 ft 324 kts 216°
2026-04-26 16:18 27.68476 -81.76441 16002 ft 332 kts 194°
2026-04-26 16:18 27.63813 -81.76493 15997 ft 337 kts 181°
2026-04-26 16:19 27.59119 -81.76204 15978 ft 341 kts 169°
2026-04-26 16:19 27.56898 -81.75263 16010 ft 343 kts 158°
2026-04-26 16:19 27.53256 -81.73443 15988 ft 345 kts 158°
2026-04-26 16:20 27.50319 -81.71984 15992 ft 345 kts 158°
2026-04-26 16:20 27.45909 -81.69835 15983 ft 344 kts 158°
2026-04-26 16:20 27.43719 -81.68777 16003 ft 342 kts 159°
2026-04-26 16:21 27.41525 -81.67718 15993 ft 343 kts 159°
2026-04-26 16:21 27.39337 -81.66659 16001 ft 342 kts 159°
2026-04-26 16:21 27.37889 -81.65960 15984 ft 342 kts 159°
2026-04-26 16:21 27.35701 -81.64906 15982 ft 342 kts 159°
2026-04-26 16:22 27.33514 -81.63855 15994 ft 341 kts 159°
2026-04-26 16:22 27.31318 -81.62800 15652 ft 349 kts 159°
2026-04-26 16:22 27.29109 -81.61737 15585 ft 341 kts 159°
2026-04-26 16:22 27.26944 -81.60695 15387 ft 337 kts 159°
2026-04-26 16:23 27.24790 -81.59659 15065 ft 336 kts 159°
2026-04-26 16:23 27.22644 -81.58627 14748 ft 335 kts 159°
2026-04-26 16:23 27.20513 -81.57603 14457 ft 333 kts 159°
2026-04-26 16:23 27.18377 -81.56577 13981 ft 337 kts 159°
2026-04-26 16:24 27.16175 -81.55521 13294 ft 348 kts 159°
2026-04-26 16:24 27.13942 -81.54450 12858 ft 349 kts 159°
2026-04-26 16:24 27.11746 -81.53396 12546 ft 346 kts 159°
2026-04-26 16:24 27.09546 -81.52339 12230 ft 343 kts 159°
2026-04-26 16:25 27.07362 -81.51290 11897 ft 341 kts 159°
2026-04-26 16:25 27.05185 -81.50245 11571 ft 338 kts 159°
2026-04-26 16:25 27.03066 -81.49227 11449 ft 323 kts 159°
2026-04-26 16:25 27.01041 -81.48255 11319 ft 308 kts 159°
2026-04-26 16:26 26.99115 -81.47306 11026 ft 301 kts 158°
2026-04-26 16:26 26.97208 -81.46350 10609 ft 299 kts 158°
2026-04-26 16:26 26.95313 -81.45397 10194 ft 297 kts 158°
2026-04-26 16:26 26.93436 -81.44454 9808 ft 295 kts 158°
2026-04-26 16:27 26.91566 -81.43517 9362 ft 292 kts 158°
2026-04-26 16:27 26.89720 -81.42593 8923 ft 291 kts 158°
2026-04-26 16:27 26.87904 -81.41685 8529 ft 290 kts 158°
2026-04-26 16:27 26.86067 -81.40768 8290 ft 287 kts 158°
2026-04-26 16:28 26.84212 -81.40043 8050 ft 280 kts 176°
2026-04-26 16:28 26.82319 -81.40294 7772 ft 272 kts 204°
2026-04-26 16:28 26.80712 -81.41341 7526 ft 266 kts 223°
2026-04-26 16:28 26.79357 -81.42735 7268 ft 264 kts 226°
2026-04-26 16:29 26.78037 -81.44164 7024 ft 263 kts 226°
2026-04-26 16:29 26.76777 -81.45534 6789 ft 261 kts 226°
2026-04-26 16:29 26.75455 -81.46963 6514 ft 261 kts 225°
2026-04-26 16:29 26.74150 -81.48366 6262 ft 259 kts 225°
2026-04-26 16:30 26.72850 -81.49756 6032 ft 257 kts 225°
2026-04-26 16:30 26.71566 -81.51127 5893 ft 250 kts 225°
2026-04-26 16:30 26.70338 -81.52434 5772 ft 238 kts 225°
2026-04-26 16:30 26.69171 -81.53674 5669 ft 226 kts 224°
2026-04-26 16:31 26.68037 -81.54876 5366 ft 224 kts 225°
2026-04-26 16:31 26.66914 -81.56068 5159 ft 221 kts 225°
2026-04-26 16:31 26.65800 -81.57250 4908 ft 218 kts 224°
2026-04-26 16:31 26.64733 -81.58392 4798 ft 206 kts 228°
2026-04-26 16:32 26.63903 -81.59613 4726 ft 194 kts 236°
2026-04-26 16:32 26.63388 -81.60435 4660 ft 187 kts 235°
2026-04-26 16:32 26.62402 -81.62015 4024 ft 196 kts 234°
2026-04-26 16:32 26.61574 -81.63304 3306 ft 211 kts 234°
2026-04-26 16:33 26.60682 -81.64665 2606 ft 220 kts 234°
2026-04-26 16:33 26.59781 -81.66052 1904 ft 219 kts 234°
2026-04-26 16:33 26.58909 -81.67386 1536 ft 204 kts 233°
2026-04-26 16:33 26.58105 -81.68618 1276 ft 188 kts 233°
2026-04-26 16:34 26.57375 -81.69738 1028 ft 171 kts 233°
2026-04-26 16:34 26.56708 -81.70765 834 ft 157 kts 234°
2026-04-26 16:34 26.56077 -81.71736 539 ft 156 kts 233°
2026-04-26 16:34 26.55456 -81.72690 324 ft 143 kts 234°
2026-04-26 16:35 26.54882 -81.73568 152 ft 141 kts 235°
2026-04-26 16:35 26.54318 -81.74436 48 ft 130 kts 235°
2026-04-26 16:35 26.53862 -81.75141 41 ft 84 kts 234°
2026-04-26 16:35 26.53624 -81.75505 41 ft 36 kts 234°
2026-04-26 16:36 26.53518 -81.75665 40 ft 20 kts 229°
2026-04-26 16:36 26.53416 -81.75747 43 ft 18 kts 202°
2026-04-26 16:36 26.53367 -81.75769 44 ft 2 kts 201°
2026-04-26 16:36 26.53351 -81.75776 44 ft 3 kts 201°
2026-04-26 16:37 26.53306 -81.75803 43 ft 12 kts 213°
2026-04-26 16:37 26.53247 -81.75857 43 ft 10 kts 200°
2026-04-26 16:37 26.53184 -81.75833 43 ft 10 kts 143°
2026-04-26 16:37 26.53143 -81.75765 43 ft 16 kts 99°
2026-04-26 16:38 26.53124 -81.75628 43 ft 16 kts 99°
2026-04-26 16:38 26.53106 -81.75502 43 ft 17 kts 98°
2026-04-26 16:38 26.53087 -81.75369 40 ft 17 kts 99°
2026-04-26 16:38 26.53068 -81.75246 43 ft 14 kts 104°
2026-04-26 16:39 26.53012 -81.75215 43 ft 9 kts 201°
2026-04-26 16:39 26.52968 -81.75267 43 ft 10 kts 234°
2026-04-26 16:39 26.52937 -81.75316 41 ft 9 kts 234°
2026-04-26 16:39 26.52893 -81.75360 43 ft 8 kts 192°
2026-04-26 16:40 26.52850 -81.75347 43 ft 3 kts 147°
2026-04-26 16:40 26.52838 -81.75338 43 ft 0 kts 145°